Location: Reeth
(54.3881°N, 1.9432°W)
Time: 17:45:01
(UTC+00:00)

N. Korean satellite - Visible Passes

Search period start: 21 January 2021 00:00
Search period end: 31 January 2021 00:00
Orbit: 453 x 502 km, 97.2° (Epoch: 20 January)

Date Brightness Start Highest point End Pass type
(mag) Time Alt. Az. Time Alt. Az. Time Alt. Az.
21 Jan 8.9 04:57:22 10° NE 05:00:13 23° E 05:03:02 10° SSE visible
21 Jan 7.0 06:30:24 10° N 06:33:40 36° WNW 06:36:52 10° SW visible
21 Jan 8.6 17:11:35 10° SSW 17:14:57 34° W 17:18:19 10° NNW visible
22 Jan 9.8 04:31:45 10° ENE 04:33:23 13° E 04:35:00 10° ESE visible
22 Jan 6.3 06:03:39 10° N 06:07:10 69° WNW 06:10:37 10° SSW visible
23 Jan 7.0 05:37:06 10° NNE 05:40:35 60° ESE 05:43:59 10° S visible
23 Jan 8.1 07:11:18 10° NNW 07:13:31 16° WNW 07:15:42 10° W visible
23 Jan 9.8 17:53:21 10° WSW 17:55:25 14° W 17:57:30 10° NW visible
24 Jan 8.4 05:10:44 10° NNE 05:13:53 31° E 05:16:59 10° SSE visible
24 Jan 7.4 06:44:10 10° N 06:47:09 27° WNW 06:50:06 10° WSW visible
24 Jan 9.2 17:25:33 10° SSW 17:28:37 25° W 17:31:40 10° NW visible
25 Jan 9.4 04:44:43 10° NE 04:47:05 17° E 04:49:25 10° SE visible
25 Jan 6.6 06:17:19 10° N 06:20:41 48° WNW 06:24:01 10° SW visible
26 Jan 6.4 05:50:37 10° NNE 05:54:08 86° E 05:57:35 10° SSW visible
26 Jan 8.4 07:25:26 10° NNW 07:26:55 12° NW 07:28:23 10° W visible
26 Jan 10.3 18:08:22 10° W 18:09:09 11° W 18:09:55 10° WNW visible
27 Jan 7.7 05:24:08 10° NNE 05:27:29 42° E 05:30:46 10° S visible
27 Jan 7.8 06:57:58 10° NNW 07:00:35 20° WNW 07:03:10 10° WSW visible
27 Jan 9.7 17:39:38 10° SW 17:42:16 19° W 17:44:53 10° NW visible
28 Jan 8.9 04:57:54 10° NE 05:00:44 23° E 05:03:30 10° SSE visible
28 Jan 7.0 06:30:58 10° N 06:34:10 35° WNW 06:37:18 10° SW visible
28 Jan 8.6 17:12:11 10° SSW 17:15:29 33° W 17:18:46 10° NNW visible
29 Jan 9.8 04:32:16 10° ENE 04:33:52 13° E 04:35:28 10° ESE visible
29 Jan 6.3 06:04:11 10° N 06:07:39 67° WNW 06:11:03 10° SSW visible
30 Jan 6.9 05:37:35 10° NNE 05:41:02 61° ESE 05:44:25 10° S visible
30 Jan 8.1 07:11:51 10° NNW 07:13:57 15° WNW 07:16:03 10° W visible
30 Jan 9.9 17:53:59 10° WSW 17:55:55 14° W 17:57:51 10° NW visible
